Beaufort MCAS, SC

6:18 PM EDT on June 23, 2017 (GMT -0400)
Beaufort Marine Corps Air Station

Weather History for KNBC - July, 2015

Change the Weather History Date:

Thursday, July 30, 2015

  Actual Average Record
Temperature  
Mean Temperature 86 °F -  
Max Temperature 96 °F 91 °F 102 °F (2016)
Min Temperature 78 °F 73 °F 67 °F (1954)
Cooling Degree Days 20    
Growing Degree Days 36 (Base 50)    
Moisture  
Dew Point 74 °F    
Average Humidity 73    
Maximum Humidity 94    
Minimum Humidity 42    
Precipitation  
Precipitation 0.00 in - - ()
Sea Level Pressure  
Sea Level Pressure 29.93 in    
Wind  
Wind Speed 4 mph (West)    
Max Wind Speed 8 mph    
Max Gust Speed -    
Visibility 10 miles    
Events      
Averages and records for this station are not official NWS values.
T = Trace of Precipitation, MM = Missing Value Source: NWS Daily Summary

Daily Weather History Graph

Daily Weather History Graph

Search for Another Location

Airport or City:

Trip Planner

Search our weather history database for the weather conditions in past years. The results will help you decide how hot, cold, wet, or windy it might be!

Date:

Astronomy

Jul. 30, 2015 Rise Set
Actual Time 6:35 AM EDT 8:22 PM EDT
Civil Twilight 6:08 AM EDT 8:49 PM EDT
Nautical Twilight 5:36 AM EDT 9:21 PM EDT
Astronomical Twilight 5:01 AM EDT 9:56 PM EDT
Moon 7:40 PM EDT (7/30) 5:41 AM EDT (7/30)
Length of Visible Light 14h 40m
Length of Day
13h 46m
Waxing Gibbous, 99% of the Moon is Illuminated
Jul 30
Waxing Gibbous
Jul 31
Full
Aug 6
Last Quarter
Aug 14
New
Aug 22
First Quarter

Hourly Weather History & Observations

Time (EDT) Temp. Heat Index Dew Point Humidity Pressure Visibility Wind Dir Wind Speed Gust Speed Precip Events Conditions
12:56 AM 81.0 °F 88.6 °F 78.1 °F 91% 29.98 in 10.0 mi SSW 3.5 mph - N/A   Partly Cloudy
1:56 AM 79.0 °F - 77.0 °F 94% 29.97 in 10.0 mi Calm Calm - N/A   Clear
2:56 AM 79.0 °F - 77.0 °F 94% 29.96 in 10.0 mi Calm Calm - N/A   Scattered Clouds
3:11 AM 80.1 °F 85.8 °F 77.0 °F 90% 29.95 in 10.0 mi Calm Calm - N/A   Mostly Cloudy
3:25 AM 80.1 °F 85.8 °F 77.0 °F 90% 29.95 in 10.0 mi NNW 3.5 mph - N/A   Mostly Cloudy
3:54 AM 80.6 °F 88.1 °F 78.8 °F 94% 29.94 in 10.0 mi NW 4.6 mph - N/A   Mostly Cloudy
3:56 AM 80.1 °F 86.4 °F 78.1 °F 94% 29.94 in 10.0 mi NW 5.8 mph - N/A   Mostly Cloudy
4:28 AM 79.0 °F - 77.0 °F 94% 29.93 in 10.0 mi NW 6.9 mph - N/A   Scattered Clouds
4:56 AM 78.1 °F - 75.9 °F 93% 29.93 in 10.0 mi WNW 5.8 mph - N/A   Partly Cloudy
5:56 AM 78.1 °F - 75.0 °F 90% 29.93 in 10.0 mi NW 3.5 mph - N/A   Clear
6:32 AM 78.1 °F - 75.0 °F 90% 29.92 in 10.0 mi North 5.8 mph - N/A   Scattered Clouds
6:56 AM 78.1 °F - 75.0 °F 90% 29.93 in 10.0 mi North 3.5 mph - N/A   Scattered Clouds
7:56 AM 80.1 °F 85.4 °F 75.9 °F 87% 29.95 in 10.0 mi North 4.6 mph - N/A   Partly Cloudy
8:56 AM 84.0 °F 91.2 °F 73.9 °F 72% 29.96 in 10.0 mi North 4.6 mph - N/A   Partly Cloudy
9:56 AM 87.1 °F 95.4 °F 73.9 °F 65% 29.96 in 10.0 mi North 4.6 mph - N/A   Partly Cloudy
10:56 AM 89.1 °F 95.0 °F 71.1 °F 55% 29.97 in 10.0 mi NE 3.5 mph - N/A   Scattered Clouds
11:56 AM 91.0 °F 95.6 °F 69.1 °F 48% 29.97 in 10.0 mi ESE 3.5 mph - N/A   Scattered Clouds
12:56 PM 93.0 °F 96.4 °F 66.9 °F 42% 29.96 in 10.0 mi ESE 3.5 mph - N/A   Scattered Clouds
1:56 PM 93.9 °F 99.1 °F 69.1 °F 44% 29.94 in 10.0 mi Calm Calm - N/A   Scattered Clouds
2:56 PM 93.9 °F 100.3 °F 70.0 °F 46% 29.91 in 10.0 mi Calm Calm - N/A   Scattered Clouds
3:56 PM 93.0 °F 105.3 °F 75.9 °F 57% 29.88 in 10.0 mi Variable 6.9 mph - N/A   Scattered Clouds
4:56 PM 91.9 °F 107.3 °F 78.1 °F 64% 29.87 in 10.0 mi SSE 6.9 mph - N/A   Scattered Clouds
5:56 PM 93.0 °F 105.3 °F 75.9 °F 57% 29.87 in 10.0 mi South 6.9 mph - N/A   Scattered Clouds
6:56 PM 91.0 °F 100.4 °F 73.9 °F 57% 29.87 in 10.0 mi SSW 8.1 mph - N/A   Scattered Clouds
7:26 PM 89.1 °F 96.0 °F 72.0 °F 57% 29.87 in 10.0 mi SSW 8.1 mph - N/A   Scattered Clouds
7:56 PM 88.0 °F 94.7 °F 72.0 °F 59% 29.89 in 10.0 mi South 4.6 mph - N/A   Mostly Cloudy
8:56 PM 86.0 °F 92.2 °F 72.0 °F 63% 29.89 in 10.0 mi SW 5.8 mph - N/A   Mostly Cloudy
9:56 PM 84.9 °F 90.1 °F 71.1 °F 63% 29.93 in 10.0 mi SSW 3.5 mph - N/A   Mostly Cloudy
10:56 PM 84.0 °F 90.2 °F 73.0 °F 69% 29.93 in 10.0 mi SSW 4.6 mph - N/A   Mostly Cloudy
11:56 PM 84.9 °F 92.1 °F 73.9 °F 69% 29.93 in 10.0 mi South 4.6 mph - N/A   Overcast